Daniel Oduber Quiros International Airport

Jump to: basic info | weather | frequencies | runways | comments

Related pages: nearby airports | nearby navaids | notams | map

Basic information (top)

Codes: LIR MRLB
Location: lon 10.593300, lat -85.544403, elev 270 ft / 82 m msl
Status: medium_airport
Scheduled airline service: yes
Links: Wikipedia Mobile

Weather (top)

Current conditions (rec'd 2014/10/31 02:00Z):

MRLB 310200Z 13007KT 9999 FEW030 SCT110 25/21 A2982

Airport forecast (rec'd 2014/10/31 06:38Z):

TAF MRLB 310500Z 3106/0106 10005KT 9999 FEW040 SCT130 TX33/3119Z TN23/3111Z PROB30 
      TEMPO 3110/3114 00000KT 0200 FG VV/// 
      TEMPO 3114/3120 15005KT 
      TEMPO 3120/3124 28010KT -TSRA SCT020CB BKN090

Frequencies (top)

Verify before use: may be inaccurate or out of date.

APP: 119.8 MHz (LIBERIA APP)
GND: 121.7 MHz (GND)
RDO: 126.8 MHz (COCO RDO)
TWR: 118.8 MHz (LIBERIA TWR)

Runways (top)

07/25: 9,022 x 148 ft (2,750 x 45 m) — paved — lighted

Latest comments (top)

Great Facility but: Make sure you either speak fluent ... [read]

Terminal building: Nice new facility opened in 2011 [read]

More... (top)

See also NOTAMs and nearby airports and navaids, or visit the Daniel Oduber Quiros International Airport page at the main OurAirports website..